EZS81GY LIRN-LSGG

Flight info

Callsign EZS81GY
Flight time 1h 20m
Altitude 36000
Route ALAXI DCT INSOX DCT OKDEB DCT PEMAR DCT TIBER DCT TINKU DCT TONDA/N0380F220 DCT AOSTA L615 BANKO
Aircraft A320/M-SDE3FGHIRWY/LB1

Departure

Time 2026-05-04 16:13
Airport Naples International Airport (LIRN)

Arrival

Time 2026-05-04 17:34
Airport Geneva International Airport (LSGG)
Time Latitude Longitude Altitude Speed Heading
2026-05-04 15:53 40.87889 14.28167 293 ft 0 kts 163°
2026-05-04 16:03 40.87892 14.28166 293 ft 3 kts 163°
2026-05-04 16:03 40.87917 14.28156 295 ft 4 kts 163°
2026-05-04 16:04 40.87939 14.28148 298 ft 4 kts 179°
2026-05-04 16:04 40.87959 14.28190 297 ft 4 kts 278°
2026-05-04 16:04 40.87956 14.28223 296 ft 3 kts 278°
2026-05-04 16:05 40.87956 14.28227 295 ft 0 kts 278°
2026-05-04 16:08 40.87991 14.28128 294 ft 9 kts 351°
2026-05-04 16:09 40.88068 14.28257 291 ft 10 kts 83°
2026-05-04 16:09 40.88049 14.28472 285 ft 15 kts 96°
2026-05-04 16:10 40.88141 14.28772 281 ft 23 kts 53°
2026-05-04 16:11 40.88514 14.29417 263 ft 35 kts 53°
2026-05-04 16:11 40.88649 14.29651 256 ft 32 kts 52°
2026-05-04 16:12 40.88996 14.30172 238 ft 12 kts 330°
2026-05-04 16:12 40.89081 14.30083 238 ft 1 kts 238°
2026-05-04 16:13 40.88557 14.28981 270 ft 137 kts 237°
2026-05-04 16:13 40.87593 14.26512 1373 ft 160 kts 272°
2026-05-04 16:14 40.88448 14.23583 2267 ft 191 kts 300°
2026-05-04 16:14 40.89887 14.20185 3193 ft 222 kts 298°
2026-05-04 16:15 40.92182 14.14755 5307 ft 244 kts 308°
2026-05-04 16:16 40.95077 14.11738 6417 ft 278 kts 323°
2026-05-04 16:16 40.99834 14.07156 9043 ft 285 kts 322°
2026-05-04 16:17 41.03075 14.04007 10540 ft 299 kts 322°
2026-05-04 16:18 41.08543 13.98683 11928 ft 340 kts 322°
2026-05-04 16:18 41.10460 13.96819 12673 ft 344 kts 322°
2026-05-04 16:19 41.16359 13.91087 14712 ft 357 kts 322°
2026-05-04 16:19 41.20351 13.87154 16053 ft 361 kts 317°
2026-05-04 16:20 41.25760 13.80179 18162 ft 363 kts 314°
2026-05-04 16:20 41.29365 13.75408 19277 ft 368 kts 314°
2026-05-04 16:21 41.34884 13.68112 20975 ft 377 kts 314°
2026-05-04 16:22 41.38628 13.63176 22100 ft 383 kts 313°
2026-05-04 16:22 41.44380 13.55564 23618 ft 393 kts 314°
2026-05-04 16:23 41.50223 13.47822 24989 ft 396 kts 313°
2026-05-04 16:24 41.58018 13.37438 26778 ft 397 kts 313°
2026-05-04 16:25 41.61930 13.32211 27632 ft 397 kts 313°
2026-05-04 16:26 41.69756 13.21726 29167 ft 401 kts 312°
2026-05-04 16:26 41.75679 13.13778 30204 ft 403 kts 312°
2026-05-04 16:27 41.79640 13.08464 30772 ft 403 kts 311°
2026-05-04 16:28 41.85579 13.00445 31595 ft 402 kts 311°
2026-05-04 16:28 41.91437 12.92528 32561 ft 398 kts 311°
2026-05-04 16:29 41.99175 12.82008 33911 ft 393 kts 311°
2026-05-04 16:30 42.04913 12.74222 34825 ft 389 kts 310°
2026-05-04 16:31 42.08711 12.69040 35280 ft 389 kts 310°
2026-05-04 16:31 42.14402 12.61245 35911 ft 389 kts 310°
2026-05-04 16:32 42.20092 12.53440 36143 ft 388 kts 310°
2026-05-04 16:33 42.27767 12.42882 36141 ft 402 kts 310°
2026-05-04 16:34 42.33695 12.34695 36139 ft 408 kts 310°
2026-05-04 16:35 42.45576 12.18204 36136 ft 409 kts 310°
2026-05-04 16:36 42.51540 12.09911 36139 ft 409 kts 310°
2026-05-04 16:37 42.57485 12.01607 36141 ft 409 kts 310°
2026-05-04 16:38 42.65401 11.90518 36148 ft 410 kts 309°
2026-05-04 16:39 42.74653 11.77500 36140 ft 410 kts 309°
2026-05-04 16:40 42.82581 11.66284 36127 ft 411 kts 309°
2026-05-04 16:41 42.92503 11.52214 36125 ft 412 kts 309°
2026-05-04 16:43 43.02424 11.38061 36122 ft 413 kts 309°
2026-05-04 16:43 43.08352 11.29579 36134 ft 413 kts 309°
2026-05-04 16:45 43.20278 11.12412 36118 ft 415 kts 308°
2026-05-04 16:46 43.30217 10.98032 36130 ft 415 kts 308°
2026-05-04 16:47 43.38155 10.86507 36116 ft 417 kts 308°
2026-05-04 16:48 43.46112 10.74890 36109 ft 417 kts 308°
2026-05-04 16:49 43.54067 10.63233 36111 ft 418 kts 309°
2026-05-04 16:50 43.62028 10.51509 36102 ft 419 kts 308°
2026-05-04 16:51 43.67996 10.42712 36102 ft 420 kts 308°
2026-05-04 16:52 43.75977 10.30880 36115 ft 420 kts 308°
2026-05-04 16:53 43.81979 10.21936 36087 ft 423 kts 308°
2026-05-04 16:54 43.89995 10.09988 36098 ft 425 kts 308°
2026-05-04 16:55 44.02045 9.91890 36110 ft 426 kts 308°
2026-05-04 16:56 44.12094 9.76720 36089 ft 429 kts 307°
2026-05-04 16:57 44.18153 9.67535 36084 ft 430 kts 307°
2026-05-04 16:58 44.24185 9.58373 36090 ft 418 kts 307°
2026-05-04 16:58 44.26142 9.55400 36088 ft 414 kts 307°
2026-05-04 17:00 44.37764 9.37603 36085 ft 414 kts 307°
2026-05-04 17:01 44.47429 9.22724 36095 ft 415 kts 307°
2026-05-04 17:02 44.55191 9.10731 36101 ft 415 kts 307°
2026-05-04 17:03 44.60979 9.01750 36096 ft 416 kts 307°
2026-05-04 17:03 44.66832 8.92611 34461 ft 428 kts 307°
2026-05-04 17:04 44.70821 8.86364 33047 ft 425 kts 307°
2026-05-04 17:04 44.74739 8.80259 31930 ft 416 kts 307°
2026-05-04 17:05 44.78580 8.74239 30844 ft 410 kts 307°
2026-05-04 17:05 44.82370 8.68290 29719 ft 405 kts 307°
2026-05-04 17:06 44.86088 8.62435 28686 ft 396 kts 307°
2026-05-04 17:06 44.87911 8.59552 28179 ft 393 kts 308°
2026-05-04 17:07 44.91519 8.53844 27184 ft 388 kts 308°
2026-05-04 17:07 44.92708 8.51962 26861 ft 387 kts 308°
2026-05-04 17:07 44.95072 8.48216 26233 ft 384 kts 308°
2026-05-04 17:07 44.96843 8.45407 25773 ft 381 kts 308°
2026-05-04 17:08 44.98598 8.42623 25332 ft 379 kts 308°
2026-05-04 17:08 45.02085 8.37082 24429 ft 375 kts 308°
2026-05-04 17:08 45.03808 8.34336 23987 ft 372 kts 308°
2026-05-04 17:09 45.05524 8.31596 23513 ft 371 kts 308°
2026-05-04 17:09 45.07227 8.28873 23043 ft 368 kts 308°
2026-05-04 17:09 45.08921 8.26166 22594 ft 366 kts 308°
2026-05-04 17:10 45.12484 8.20982 21992 ft 376 kts 315°
2026-05-04 17:10 45.18818 8.12940 21726 ft 436 kts 315°
2026-05-04 17:11 45.21114 8.10023 21650 ft 451 kts 315°
2026-05-04 17:11 45.23478 8.07022 21542 ft 460 kts 315°
2026-05-04 17:11 45.28268 8.00943 21342 ft 463 kts 315°
2026-05-04 17:12 45.30665 7.97891 21228 ft 463 kts 315°
2026-05-04 17:12 45.35471 7.91750 21035 ft 464 kts 314°
2026-05-04 17:13 45.42652 7.82544 20734 ft 465 kts 314°
2026-05-04 17:14 45.49858 7.73273 20449 ft 463 kts 314°
2026-05-04 17:14 45.52226 7.70225 20177 ft 457 kts 314°
2026-05-04 17:14 45.56964 7.64112 19678 ft 460 kts 314°
2026-05-04 17:15 45.59326 7.61053 19429 ft 452 kts 314°
2026-05-04 17:15 45.63906 7.55110 18957 ft 443 kts 314°
2026-05-04 17:16 45.68441 7.49215 18493 ft 444 kts 314°
2026-05-04 17:16 45.75266 7.40310 17912 ft 443 kts 314°
2026-05-04 17:17 45.77464 7.37241 18066 ft 440 kts 306°
2026-05-04 17:17 45.80398 7.25354 18134 ft 423 kts 273°
2026-05-04 17:18 45.80731 7.21148 18140 ft 426 kts 274°
2026-05-04 17:18 45.81408 7.12787 18132 ft 424 kts 273°
2026-05-04 17:19 45.82653 7.04491 18097 ft 432 kts 291°
2026-05-04 17:19 45.85931 6.97195 18102 ft 436 kts 300°
2026-05-04 17:20 45.90049 6.90889 18061 ft 430 kts 324°
2026-05-04 17:20 45.95152 6.87137 17801 ft 391 kts 329°
2026-05-04 17:20 45.97552 6.85433 17018 ft 381 kts 329°
2026-05-04 17:21 46.02217 6.82089 15330 ft 368 kts 329°
2026-05-04 17:21 46.06739 6.78823 13635 ft 359 kts 330°
2026-05-04 17:22 46.08920 6.77248 12903 ft 351 kts 330°
2026-05-04 17:22 46.11051 6.75716 12459 ft 334 kts 330°
2026-05-04 17:23 46.16926 6.71471 11182 ft 307 kts 330°
2026-05-04 17:23 46.18819 6.70094 10757 ft 305 kts 330°
2026-05-04 17:23 46.22633 6.67323 10127 ft 305 kts 330°
2026-05-04 17:24 46.24513 6.65962 10035 ft 301 kts 330°
2026-05-04 17:24 46.29585 6.62274 8888 ft 311 kts 330°
2026-05-04 17:25 46.31512 6.60852 8432 ft 311 kts 330°
2026-05-04 17:25 46.35984 6.57473 7381 ft 311 kts 330°
2026-05-04 17:26 46.39097 6.55043 6985 ft 284 kts 324°
2026-05-04 17:26 46.42549 6.49553 6515 ft 230 kts 281°
2026-05-04 17:27 46.43014 6.45013 5981 ft 226 kts 273°
2026-05-04 17:27 46.43125 6.40524 5597 ft 216 kts 250°
2026-05-04 17:28 46.41554 6.37095 5008 ft 202 kts 222°
2026-05-04 17:29 46.38695 6.32858 4524 ft 190 kts 223°
2026-05-04 17:29 46.35920 6.28753 4299 ft 192 kts 223°
2026-05-04 17:30 46.33452 6.25103 3805 ft 153 kts 224°
2026-05-04 17:31 46.32031 6.23006 3437 ft 143 kts 224°
2026-05-04 17:31 46.29981 6.19984 2855 ft 141 kts 224°
2026-05-04 17:32 46.28594 6.17940 2443 ft 142 kts 225°
2026-05-04 17:33 46.26546 6.14929 1856 ft 139 kts 226°
2026-05-04 17:33 46.25873 6.13939 1671 ft 138 kts 226°
2026-05-04 17:34 46.24092 6.11314 1375 ft 71 kts 225°
2026-05-04 17:34 46.23825 6.10923 1380 ft 43 kts 225°
2026-05-04 17:35 46.23545 6.10708 1385 ft 0 kts 195°
2026-05-04 17:35 46.23544 6.10707 1386 ft 1 kts 195°
2026-05-04 17:36 46.23519 6.10698 1387 ft 6 kts 195°
2026-05-04 17:36 46.23476 6.10714 1388 ft 9 kts 114°
2026-05-04 17:36 46.23515 6.10802 1391 ft 11 kts 44°
2026-05-04 17:36 46.23566 6.10877 1391 ft 9 kts 51°
2026-05-04 17:37 46.23548 6.10926 1400 ft 4 kts 137°
2026-05-04 17:37 46.23533 6.10948 1397 ft 2 kts 135°
2026-05-04 17:37 46.23526 6.10958 1393 ft 1 kts 135°
2026-05-04 17:37 46.23525 6.10958 1393 ft 0 kts 135°